Location: ??????
(33.3472°N, 35.4764°E)
Time: 05:27:49
(UTC+00:00)

Cosmos 2297 Rocket - Pass Details

Date: 21 August 2019
Orbit: 839 x 843 km, 71.0° (Epoch: 14 September)

Event Time Altitude Azimuth Distance (km) Brightness Sun altitude
Exits shadow 00:54:03 17° 311° (NW) 1,992 4.0 -25.3°
Drops below altitude 10° 00:57:10 10° 344° (NNW) 2,466 4.8 -24.8°
Sets 01:00:29 0° 4° (N) 3,405 5.9 -24.2°
